www.pogodaiklimat.ru

Погода и климат >> Архив погоды >> Марокко >> Марракеш


АРХИВ ПОГОДЫ в Марракеше

Время (UTC), дата Ветер
(напр.,м/с)
 
Видим.   Явления Облачность Т
(С)
Тd
(С)
f
(%)
Тe
(С)
Тes
(С)
Комфортность P
(гПа)
Po
(гПа)
Тmin
(С)
Tmax
(С)
R
(мм)
R24
(мм)
S
(см)
18 17.06 З 17-17
{18}
4000 м пыльный позёмок ясно +30.6 +11.1 30 +31 +31 жарко 1011.5 961.0 +34.1
21 17.06 З 8-8
{24}
6000 м ясно +22.8 +10.3 45 +25 +25 комфорт 1016.1 964.1
00 18.06 ЮЗ 4-4
{26}
9000 м ясно +18.6 +11.2 62 +19 +19 прохладно 1017.4 964.6
03 18.06 З 3 10 км ясно +16.1 +9.3 64 +16 +16 холодно 1016.5 962.0
06 18.06 ЮЗ 4-5
{6}
10 км ясно +15.5 +11.5 77 +15 +15 прохладно 1017.1 963.8 +14.8
09 18.06 В 2 10 км ясно +23.6 +10.3 43 +25 +35 комфорт 1016.0 962.9
12 18.06 С 5 10 км ясно +28.3 +9.6 31 +28 +40 жарко 1014.6 962.4
15 18.06 СЗ 6 10 км ясно +32.3 +9.8 25 +32 +38 жарко 1012.4 961.0
18 18.06 З 10 10 км ясно +32.3 +7.2 21 +31 +31 жарко 1012.0 961.7 +33.6
21 18.06 С 6-12
{16}
10 км 3/0
[Ci sp]
+27.5 +10.2 34 +28 +28 жарко 1014.1 963.0
00 19.06 ЮЗ 6-8
{21}
10 км ясно +20.4 +12.9 62 +22 +22 комфорт 1016.9 964.5
03 19.06 ЮЗ 7 10 км ясно +17.7 +13.6 77 +17 +17 прохладно 1016.0 961.9
12 19.06 С 4 10 км 3/0
[Ci sp]
+28.5 +12.4 37 +30 +43 жарко 1014.4 962.2
15 19.06 СЗ 6 10 км ясно +31.7 +11.5 29 +32 +38 жарко 1012.5 961.0
18 19.06 СЗ 6 10 км ясно +32.6 +11.2 27 +32 +33 жарко 1011.7 960.4 +32.9
21 19.06 С 6-6
{22}
10 км ясно +25.1 +13.6 49 +27 +27 жарко 1014.4 962.9
00 20.06 С 6-6
{22}
10 км ясно +21.5 +14.2 63 +24 +24 комфорт 1016.2 964.0
03 20.06 ЮЗ 5-5
{10}
10 км ясно +18.4 +13.9 75 +19 +19 прохладно 1016.0 963.3
09 20.06 В 4 10 км ясно +23.0 +14.0 57 +26 +33 жарко 1015.7 962.5
12 20.06 СЗ 3 10 км 4/4 700 м
[Cu med, cong]
+27.5 +14.2 44 +30 +40 жарко 1013.9 961.6
15 20.06 СЗ 7 10 км 4/4 700 м
[Cu med, cong]
+30.6 +12.5 33 +31 +34 жарко 1011.7 960.0
21 20.06 С 12 10 км 3/3 800 м
[Cu med, cong]
+22.8 +12.1 51 +25 +25 комфорт 1014.4 961.3
00 21.06 С 7 10 км ясно +20.2 +12.4 61 +22 +22 комфорт 1016.0 962.3
03 21.06 СВ 5 10 км ясно +18.4 +12.8 70 +18 +18 прохладно 1015.5 961.5
06 21.06 СВ 5 10 км ясно +17.6 +13.1 75 +17 +17 по сезону 1015.8 961.7 +17.0
09 21.06 СВ 3 10 км ясно +22.7 +12.9 54 +26 +34 жарко 1014.8 961.6
12 21.06 С 4 10 км ясно +28.0 +11.5 36 +29 +43 жарко 1012.6 960.4
15 21.06 С 7-10
{16}
10 км ясно +31.1 +11.0 29 +31 +35 жарко 1010.0 959.7
18 21.06 С 11-14
{17}
10 км ясно +31.3 +8.9 25 +30 +30 жарко 1009.5 959.2 +33.3
21 21.06 С 11 10 км ясно +22.9 +11.9 50 +25 +25 комфорт 1013.2 960.1
00 22.06 С 6 10 км ясно +20.4 +12.6 61 +22 +22 комфорт 1014.3 960.7
03 22.06 ЮЗ 4 10 км ясно +18.0 +12.7 71 +18 +18 прохладно 1013.6 959.6
06 22.06 ЮЗ 6 10 км ясно +16.6 +12.4 76 +16 +16 прохладно 1014.3 960.1 +16.1
09 22.06 З 3-5
{9}
8000 м ясно +22.1 +13.2 57 +25 +33 комфорт 1013.4 961.5
15 22.06 З 3 10 км ясно +32.9 +10.3 25 +32 +45 жарко 1008.7 957.6
18 22.06 С 7 10 км ясно +33.1 +7.9 21 +32 +32 жарко 1008.4 957.3 +34.1
21 22.06 СВ 8-12
{25}
10 км ясно +26.2 +9.1 34 +27 +27 жарко 1011.6 960.4
00 23.06 С 5-7
{25}
10 км ясно +22.4 +11.2 49 +25 +25 комфорт 1013.3 961.4
03 23.06 ЮЗ 4 10 км ясно +18.1 +11.7 66 +18 +18 прохладно 1013.1 959.2
06 23.06 ЮЗ 4-6
{10}
10 км ясно +17.1 +10.9 67 +17 +17 по сезону 1013.6 960.7 +16.4
09 23.06 С 2 10 км ясно +24.9 +11.5 43 +26 +36 жарко 1011.5 958.9
12 23.06 СЗ 4 10 км ясно +30.5 +7.7 24 +29 +44 жарко 1010.1 958.5
15 23.06 З 7 10 км ясно +33.9 +7.0 19 +32 +36 жарко 1008.3 957.3
18 23.06 С 8 10 км ясно +33.3 +8.0 21 +32 +32 жарко 1008.2 957.1 +34.6
21 23.06 С 4 10 км ясно +25.4 +8.4 34 +26 +26 жарко 1012.8 960.2
00 24.06 ЮЗ 4 8000 м ясно +22.1 +8.6 42 +23 +23 комфорт 1013.9 960.7
03 24.06 З 4 10 км ясно +17.9 +8.7 55 +18 +18 прохладно 1013.5 959.5
06 24.06 ЮЗ 5 10 км ясно +17.7 +10.3 62 +17 +17 по сезону 1013.9 959.9 +16.9
09 24.06 З 6 10 км ясно +23.4 +11.5 47 +26 +30 жарко 1013.2 960.2
12 24.06 З 4 10 км ясно +29.6 +10.2 30 +30 +44 жарко 1011.9 960.0
15 24.06 С 2-2
{14}
10 км ясно +33.1 +10.4 25 +33 +48 жарко 1010.6 960.5

 

Местоположение метеостанции Марракеш (Марокко): широта 31.62 долгота -8.03 высота над уровнем моря 466 м.

В архиве по умолчанию представлена погода в Марракеше за последнюю неделю. Архивные данные за месяц целиком и за предыдущие месяцы, начиная с января 2011 года, Вы можете получить, выбрав интересующий диапазон дат из раскрывающегося списка и нажав кнопку "Ввод!".


*Определитесь, кто Вы:
робот инопланетянин человек

Внимание! Время в таблицах - всемирное. Для получения местного времени необходимо прибавить поправку, которая равна 0 ч.

Смотрите также архив погоды в соседних городах и на ближайших метеорологических станциях:

Погода в Варзазате (Марокко) (132 км)
Погода в Сафи (Марокко) (135 км)
Погода в Таруданте (Марокко) (146 км)
Погода в Сеттате (Марокко) (153 км)
Погода в Аэропорту Эс-Сувейра-Могадор (Марокко) (158 км)
Погода в Эс-Сувейре (Марокко) (166 км)
Погода в Хурибге (Марокко) (171 км)
Погода в Бени-Меллале (Марокко) (175 км)
Погода в Касба-Тадле (Марокко) (194 км)
Погода в Агадире (Марокко) (195 км)

Пояснения к столбцам:

Ветер - указаны скорость ветра в м/с - средняя за 10 мин, порывы в срок и между сроками (в фигурных скобках) и направление, откуда дует ветер: С - северный, СВ - северо-восточный, В - восточный, ЮВ - юго-восточный, Ю - южный, ЮЗ - юго-западный, З - западный, СЗ - северо-западный.
Видимость - горизонтальная дальность видимости в метрах или километрах. При видимости от 1 до 10 км при отсутствии осадков обычно наблюдается дымка, при ухудшении видимости до 1 км и менее - туман. В сухую погоду видимость может ухудшаться дымом, пылью или мглою.
Явления - указаны атмосферные явления, наблюдавшиеся в срок или в последний час перед сроком; фигурными скобками обозначены явления, наблюдавшиеся между сроками (за 1-3 часа до срока); квадратными скобками обозначены град или гололедные отложения с указанием их диаметра в мм.
Облачность - указаны через наклонную черту общая и нижняя облачность в баллах и высота нижней границы облаков в метрах; квадратными скобками обозначены формы облаков: Ci - перистые, Cs - перисто-слоистые, Cc - перисто-кучевые, Ac - высококучевые, As - высокослоистые, Sc - слоисто-кучевые, Ns - слоисто-дождевые, Cu - кучевые, Cb - кучево-дождевые. Подробнее классификацию облаков см. в Атласе облаков (PDF).
T - Температура воздуха - температура, измеренная на высоте 2 м над землей.
Td - Температура точки росы - температура, при понижении до которой содержащийся в воздухе водяной пар достигнет насыщения.
f - Относительная влажность воздуха - влажноcть воздуха, измеренная на высоте 2 м над землей.
Te - Эффективная температура - температура, которую ощущает одетый по сезону человек в тени. Характеристика душности погоды. При расчете учитывается влияние влажности воздуха и скорости ветра на теплоощущения человека.
Tes - Эффективная температура на солнце - температура, которую ощущает человек, с поправкой на солнечный нагрев. Характеристика знойности погоды. Зависит от высоты солнца над горизонтом, облачности и скорости ветра. Ночью, в пасмурную погоду, а также при ветре 12 м/с и более поправка равна нулю.
P - Атмосферное давление - приведенное к уровню моря атмосферное давление.
Po - Атмосферное давление - измеренное на уровне метеостанции атмосферное давление.
Tmin - Минимальная температура - минимум температуры воздуха на высоте 2 м над землей.
Tmax - Максимальная температура - максимум температуры воздуха на высоте 2 м над землей.
R - Количество осадков - Количество выпавших осадков за период времени, мм. При наведении курсора мыши на число - период времени, за который выпало указанное количество осадков.
R24 - Количество осадков - Количество выпавших осадков за 24 часа, мм.
S - Снежный покров - Высота снежного покрова, см. При наведении курсора мыши на число - состояние снежного покрова и степень покрытия местности в баллах.